Winner, SD

2:38 AM CDT on May 23, 2018 (GMT -0500)
Winner

Weather History for KICR - January, 2012

Change the Weather History Date:

Saturday, January 28, 2012

  Actual Average Record
Temperature  
Mean Temperature 33 °F 25 °F  
Max Temperature 42 °F 36 °F 63 °F (2015)
Min Temperature 24 °F 14 °F -4 °F (2014)
Degree Days  
Heating Degree Days 32 40  
Month to date heating degree days 990 1125  
Since 1 July heating degree days 3275 3831  
Cooling Degree Days 0 0  
Month to date cooling degree days 0 0  
Year to date cooling degree days 0 0  
Moisture  
Dew Point 12 °F    
Average Humidity 49    
Maximum Humidity 74    
Minimum Humidity 23    
Precipitation  
Precipitation 0.00 in 0.01 in 0.00 in (2018)
Month to date precipitation 0.09 0.22  
Year to date precipitation 0.09 0.22  
Sea Level Pressure  
Sea Level Pressure 30.17 in    
Wind  
Wind Speed 18 mph (West)    
Max Wind Speed 32 mph    
Max Gust Speed 40 mph    
Visibility 10 miles    
Events      
T = Trace of Precipitation, MM = Missing Value Source: NWS Daily Summary

Daily Weather History Graph

Daily Weather History Graph

Search for Another Location

Airport or City:

Astronomy

Jan. 28, 2012 Rise Set
Actual Time 7:59 AM CST 5:45 PM CST
Civil Twilight 7:29 AM CST 6:15 PM CST
Nautical Twilight 6:54 AM CST 6:50 PM CST
Astronomical Twilight 6:21 AM CST 7:24 PM CST
Moon 10:11 AM CST (1/28) 11:47 PM CST (1/28)
Length of Visible Light 10h 46m
Length of Day
9h 45m
Waxing Crescent, 28% of the Moon is Illuminated
Jan 28
Waxing Crescent
Jan 30
First Quarter
Feb 7
Full
Feb 14
Last Quarter
Feb 21
New

Hourly Weather History & Observations

Time (CST) Temp. Windchill Dew Point Humidity Pressure Visibility Wind Dir Wind Speed Gust Speed Precip Events Conditions
12:53 AM 25.0 °F 12.6 °F 16.0 °F 69% 30.22 in 10.0 mi West 15.0 mph - N/A   Clear
1:53 AM 27.0 °F 15.2 °F 15.1 °F 61% 30.20 in 10.0 mi West 15.0 mph - N/A   Clear
2:53 AM 26.1 °F 16.2 °F 12.9 °F 58% 30.19 in 10.0 mi WSW 10.4 mph - N/A   Clear
3:53 AM 27.0 °F 18.0 °F 12.0 °F 53% 30.17 in 10.0 mi SW 9.2 mph - N/A   Partly Cloudy
4:53 AM 28.0 °F 17.0 °F 12.0 °F 51% 30.15 in 10.0 mi WSW 13.8 mph - N/A   Overcast
5:53 AM 30.0 °F 19.1 °F 10.9 °F 45% 30.14 in 10.0 mi West 15.0 mph - N/A   Overcast
6:53 AM 28.0 °F 16.5 °F 12.0 °F 51% 30.15 in 10.0 mi West 15.0 mph - N/A   Overcast
7:53 AM 28.0 °F 15.7 °F 12.0 °F 51% 30.18 in 10.0 mi West 17.3 mph - N/A   Mostly Cloudy
8:53 AM 28.9 °F 16.9 °F 10.9 °F 47% 30.19 in 10.0 mi West 17.3 mph - N/A   Partly Cloudy
10:53 AM 35.1 °F 22.7 °F 12.0 °F 39% 30.19 in 10.0 mi WNW 25.3 mph 35.7 mph N/A   Clear
11:53 AM 37.9 °F 27.1 °F 12.0 °F 35% 30.19 in 10.0 mi WNW 23.0 mph 34.5 mph N/A   Clear
12:53 PM 39.0 °F 28.0 °F 12.0 °F 33% 30.17 in 10.0 mi WNW 25.3 mph 32.2 mph N/A   Clear
1:53 PM 42.1 °F 31.7 °F 8.1 °F 25% 30.14 in 10.0 mi WNW 27.6 mph 34.5 mph N/A   Clear
2:53 PM 41.0 °F 29.8 °F 7.0 °F 25% 30.14 in 10.0 mi WNW 29.9 mph 39.1 mph N/A   Clear
3:53 PM 41.0 °F 30.2 °F 7.0 °F 25% 30.14 in 10.0 mi WNW 27.6 mph 34.5 mph N/A   Clear
4:53 PM 39.0 °F 29.0 °F 8.1 °F 28% 30.14 in 10.0 mi WNW 20.7 mph - N/A   Clear
5:53 PM 35.1 °F 25.5 °F 10.9 °F 37% 30.15 in 10.0 mi West 15.0 mph - N/A   Clear
6:53 PM 34.0 °F 23.8 °F 12.0 °F 40% 30.15 in 10.0 mi West 16.1 mph - N/A   Clear
7:53 PM 34.0 °F 23.8 °F 12.0 °F 40% 30.15 in 10.0 mi West 16.1 mph - N/A   Clear
8:53 PM 32.0 °F 22.1 °F 12.9 °F 45% 30.15 in 10.0 mi West 13.8 mph - N/A   Clear
9:53 PM 33.1 °F 22.6 °F 12.0 °F 42% 30.15 in 10.0 mi WNW 16.1 mph - N/A   Clear
10:53 PM 30.0 °F 20.0 °F 12.9 °F 49% 30.17 in 10.0 mi WNW 12.7 mph - N/A   Clear
11:53 PM 30.0 °F 20.0 °F 12.0 °F 47% 30.18 in 10.0 mi WNW 12.7 mph - N/A   Mostly Cloudy